This is the latest recevied weather packets stored in our database for station/object N2XP. If no packets are shown the sender has not sent any weather packets the latest 10 day(s).
| Time | Temp. | Humidity | Pressure | Rain* | Wind** | Luminosity | Snow |
|---|---|---|---|---|---|---|---|
| 1777812302 | 6.67° C | 62% | 1010.9 hPa | 0 mm | - | - | - |
| 1777811454 | 6.11° C | 63% | 1011 hPa | 0 mm | - | - | - |
| 1777810556 | 6.11° C | 65% | 1010.9 hPa | 0 mm | - | - | - |
| 1777809653 | 6.11° C | 66% | 1010.8 hPa | 0 mm | - | - | - |
| 1777808747 | 5.56° C | 68% | 1010.7 hPa | 0 mm | - | - | - |
| 1777807852 | 5.56° C | 70% | 1010.6 hPa | 0 mm | - | - | - |
| 1777806945 | 5° C | 70% | 1010.4 hPa | 0 mm | - | - | - |
| 1777806040 | 5° C | 69% | 1010.1 hPa | 0 mm | - | - | - |
| 1777805137 | 5° C | 69% | 1010 hPa | 0 mm | - | - | - |
| 1777804239 | 5° C | 69% | 1009.8 hPa | 0 mm | - | - | - |
| 1777803337 | 5° C | 69% | 1009.7 hPa | 0 mm | - | - | - |
| 1777802437 | 5° C | 67% | 1009.4 hPa | 0 mm | - | - | - |
| 1777801530 | 5° C | 67% | 1009.3 hPa | 0 mm | - | - | - |
| 1777800628 | 5° C | 68% | 1009.2 hPa | 0 mm | - | - | - |
| 1777799738 | 5° C | 67% | 1009.2 hPa | 0 mm | - | - | - |
| 1777798827 | 5.56° C | 66% | 1009.2 hPa | 0 mm | - | - | - |
| 1777797936 | 5.56° C | 65% | 1009.1 hPa | 0 mm | - | - | - |
| 1777797023 | 5.56° C | 63% | 1009.1 hPa | 0 mm | - | - | - |
| 1777796128 | 5.56° C | 62% | 1009.2 hPa | 0 mm | - | - | - |
| 1777795219 | 6.11° C | 62% | 1009 hPa | 0 mm | - | - | - |
| 1777794317 | 6.11° C | 62% | 1008.9 hPa | 0 mm | - | - | - |
| 1777793416 | 6.11° C | 60% | 1008.8 hPa | 0 mm | - | - | - |
| 1777792516 | 6.11° C | 66% | 1008.8 hPa | 0 mm | - | - | - |
| 1777791612 | 6.11° C | 65% | 1008.8 hPa | 0 mm | - | - | - |
| 1777790712 | 6.67° C | 63% | 1008.7 hPa | 0 mm | - | - | - |
* Rain latest hour (hover to see other rain measurements)
** Current wind speed in m/s (hover to see current wind gust speed)